Preview of NWS' New Version of Forecast
This preview is not operational and should not be used for support decisions.

Regional Weather Roundup (RWR)

Issued by National Weather Service (NWS)

                            
516 
ASUS45 KABQ 212310
RWRNM 
NEW MEXICO REGIONAL WEATHER ROUNDUP
NATIONAL WEATHER SERVICE ALBUQUERQUE NM
500 PM MDT THU JUN 21 2018

NOTE: "FAIR" MEANS FEW OR NO CLOUDS BELOW 12,000 FEET AGL WITH NO
       SIGNIFICANT WEATHER OR OBSTRUCTIONS TO VISION.

      THIS PRODUCT IS RELEASED AS TWO VERSIONS.  ONE VERSION NEAR
      THE TOP OF THE HOUR CONTAINING PRELIMINARY DATA FROM ALBUQUERQUE
      AND OTHER STATIONS.  A FINAL VERSION WITH ADDITIONAL DATA IS 
      ISSUED ABOUT 10 MINUTES AFTER THE HOUR.
 
NMZ501-503-504-510>518-220000-
NORTHWEST PLATEAU/NORTHCENTRAL MOUNTAINS
  
CITY           SKY/WX    TMP DP  RH WIND       PRES   REMARKS
FARMINGTON     FAIR      94  21   7 W14       30.05F                  
LOS ALAMOS     FAIR      83  47  28 NE8       30.23F                  
SANTA FE       FAIR      91  31  11 S13       30.14F                  
TAOS             N/A     90  25   9 W13G25    30.20F                  
ANGEL FIRE     FAIR      79  31  17 W21       30.31F                  

$$
NMZ402-403-502-505>509-220000-
WESTCENTRAL MOUNTAINS/SOUTHWEST MOUNTAINS
  
CITY           SKY/WX    TMP DP  RH WIND       PRES   REMARKS
GALLUP         FAIR      95  18   6 W14G28    30.16F                  
GRANTS         FAIR      94  19   6 NE16      30.17F                  
SILVER CITY    FAIR      97  25   8 SW10G20   30.08F                  

$$
NMZ407-409-411-412-220000-
SOUTHERN DESERTS
  
CITY           SKY/WX    TMP DP  RH WIND       PRES   REMARKS
DEMING         FAIR     100  36  11 S6        29.98F                  
LAS CRUCES     FAIR     101  40  12 E8        30.00F HX  96           
HOLLOMAN AFB   FAIR     102  35  10 NW6       30.00F HX  96           
ALAMOGORDO     FAIR     100  32   9 NW7       29.99F                  
T OR C         FAIR      99  37  11 VRB7      30.01F                  

$$
NMZ519>523-220000-
CENTRAL VALLEYS/CENTRAL HIGHLANDS
  
CITY           SKY/WX    TMP DP  RH WIND       PRES   REMARKS
ALBUQUERQUE    FAIR      92  37  14 S8        30.08F                  
DOUBLE EAGLE     N/A     91  37  15 SE12      30.12F                  
MORIARTY ARPT  FAIR      93  32  11 NW6       30.16F                  
CLINES CORNERS FAIR      85  40  20 W9        30.23F                  
BELEN          FAIR      95  30  10 E6        30.07F                  
SOCORRO        FAIR      96  27   8 CALM      30.04F                  

$$
NMZ524>526-539-540-220000-
SOUTHCENTRAL MOUNTAINS
  
CITY           SKY/WX    TMP DP  RH WIND       PRES   REMARKS
RUIDOSO        NOT AVBL                                               

$$
NMZ527>531-220000-
NORTHEAST HIGHLANDS/NORTHEAST PLAINS
  
CITY           SKY/WX    TMP DP  RH WIND       PRES   REMARKS
LAS VEGAS      FAIR      83  43  24 S20       30.18F                  
RATON          FAIR      89  40  17 S17G23    30.12F                  
CLAYTON        FAIR      90  48  23 S14G20    30.04F                  

$$
NMZ532>537-220000-
EASTCENTRAL PLAINS
  
CITY           SKY/WX    TMP DP  RH WIND       PRES   REMARKS
SANTA ROSA     FAIR      94  50  22 SE8G20    30.04F                  
TUCUMCARI      FAIR      97  52  21 W7G16     29.98F                  
CANNON AFB     NOT AVBL                                               
CLOVIS AIRPORT FAIR      92  55  28 SW7       30.05F                  

$$
NMZ028-029-538-220000-
SOUTHEAST PLAINS
  
CITY           SKY/WX    TMP DP  RH WIND       PRES   REMARKS
ROSWELL        FAIR      96  55  25 S9G21     29.98F                  
ARTESIA        FAIR      93  57  29 SE13      29.98F                  
CARLSBAD       FAIR      95  55  26 SE13      29.96F                  
HOBBS          MOSUNNY   91  57  31 SE9       30.02F                  


$$